This demonstration page uses our WeatherBlox Daily Observations layout. Learn more.

Left ArrowRight Arrow

Hourly Observations for August 10, 2020

Temp ( °F °C ) Dew Point ( °F °C ) Humidity (%) Winds ( mph kmh ) Pressure ( in mb ) Visibility ( mi km ) Precip ( " mm )
12:15 am 00:15 Clear 72 22 72 22 100 100 S 3 6 30.05 1018 10 16.0934 N/A
12:35 am 00:35 Clear 72 22 72 22 100 100 S 3 6 30.04 1017 10 16.0934 N/A
12:55 am 00:55 Clear 70 21 70 21 100 100 SW 5 7 30.06 1018 10 16.0934 N/A
1:15 am 01:15 Clear 70 21 70 21 100 100 Calm 30.06 1018 10 16.0934 N/A
1:35 am 01:35 Clear 68 20 68 20 100 100 SSE 3 6 30.05 1018 10 16.0934 N/A
1:55 am 01:55 Clear 68 20 68 20 100 100 SSE 3 6 30.06 1018 10 16.0934 N/A
2:15 am 02:15 Clear 68 20 68 20 100 100 SSE 3 6 30.05 1018 10 16.0934 N/A
2:35 am 02:35 Partly Cloudy 70 21 70 21 100 100 SSE 5 7 30.05 1017 10 16.0934 N/A
2:55 am 02:55 Mostly Cloudy 70 21 70 21 100 100 S 5 7 30.06 1018 10 16.0934 N/A
3:15 am 03:15 Partly Cloudy 68 20 68 20 100 100 SSE 5 7 30.05 1018 7 11.26538 N/A
3:35 am 03:35 Clear 68 20 68 20 100 100 SSE 5 7 30.05 1018 7 11.26538 N/A
3:55 am 03:55 Mostly Cloudy 68 20 68 20 100 100 SSE 5 7 30.05 1018 7 11.26538 N/A
4:15 am 04:15 Mostly Cloudy 68 20 68 20 100 100 S 5 7 30.05 1018 7 11.26538 N/A
4:35 am 04:35 Cloudy 68 20 68 20 100 100 S 5 7 30.05 1018 7 11.26538 N/A
4:55 am 04:55 Mostly Cloudy 68 20 68 20 100 100 S 6 9 30.05 1018 7 11.26538 N/A
5:15 am 05:15 Cloudy 68 20 68 20 100 100 SSE 7 11 30.03 1017 5 8.0467 N/A
5:35 am 05:35 Partly Cloudy 68 20 68 20 100 100 SE 6 9 30.02 1017 5 8.0467 N/A
5:55 am 05:55 Partly Cloudy 68 20 68 20 100 100 SSE 7 11 30.01 1016 5 8.0467 N/A
6:15 am 06:15 Clear 68 20 68 20 100 100 SSE 5 7 30.01 1016 5 8.0467 N/A
6:35 am 06:35 Partly Cloudy 68 20 68 20 100 100 SSE 7 11 30.01 1016 5 8.0467 N/A
6:55 am 06:55 Cloudy 68 20 68 20 100 100 SSE 5 7 30.02 1017 4 6.43736 N/A
7:15 am 07:15 Cloudy 68 20 68 20 100 100 SW 5 7 30.03 1017 4 6.43736 N/A
7:35 am 07:35 Cloudy 68 20 68 20 100 100 S 9 15 30.03 1017 0.75 1.207005 N/A
7:55 am 07:55 Mostly Cloudy 70 21 70 21 100 100 Calm 30.05 1017 4 6.43736 N/A
8:15 am 08:15 Cloudy 68 20 68 20 100 100 N 6 9 30.07 1018 N/A N/A
8:35 am 08:35 Cloudy 68 20 68 20 100 100 SE 7 11 30.03 1017 1.75 2.816345 N/A
8:55 am 08:55 Mostly Cloudy 68 20 68 20 100 100 SE 7 11 30.04 1017 4 6.43736 N/A
9:15 am 09:15 Cloudy 68 20 68 20 100 100 SSW 10 17 30.06 1018 7 11.26538 N/A
9:35 am 09:35 Mostly Cloudy 68 20 68 20 100 100 SSE 5 7 30.05 1018 10 16.0934 N/A
9:55 am 09:55 Mostly Cloudy 68 20 68 20 100 100 SSE 7 11 30.05 1018 10 16.0934 N/A
10:15 am 10:15 Cloudy 68 20 68 20 100 100 SSE 6 9 30.05 1018 10 16.0934 N/A
10:35 am 10:35 Cloudy 70 21 70 21 100 100 SSE 7 11 30.04 1017 10 16.0934 N/A
10:55 am 10:55 Mostly Cloudy 72 22 72 22 100 100 S 7 11 30.03 1017 10 16.0934 N/A
11:08 am 11:08 Mostly Cloudy 73 23 73 23 100 100 SSE 8 13 30.03 1017 10 16.0934 N/A
11:29 am 11:29 Mostly Cloudy 73 23 73 23 100 100 S 9 15 30.02 1017 10 16.0934 N/A
12:15 pm 12:15 Sunny 77 25 77 25 100 100 S 7 11 30 1016 10 16.0934 N/A
12:35 pm 12:35 Partly Cloudy 77 25 77 25 100 100 S 8 13 30 1016 10 16.0934 N/A
12:55 pm 12:55 Partly Cloudy 77 25 77 25 100 100 S 8 13 29.99 1016 10 16.0934 N/A
1:15 pm 13:15 Sunny 81 27 81 27 100 100 S 7 11 29.98 1015 10 16.0934 N/A
1:35 pm 13:35 Sunny 79 26 79 26 100 100 S 7 11 29.98 1015 10 16.0934 N/A
1:55 pm 13:55 Sunny 81 27 79 26 94 94 SSW 10 17 29.97 1015 10 16.0934 N/A
2:15 pm 14:15 Sunny 82 28 81 27 94 94 S 9 15 29.96 1015 10 16.0934 N/A
2:35 pm 14:35 Sunny 82 28 81 27 94 94 S 8 13 29.95 1014 10 16.0934 N/A
2:55 pm 14:55 Partly Cloudy 82 28 81 27 94 94 S 9 15 29.94 1014 10 16.0934 N/A
3:15 pm 15:15 Partly Cloudy 82 28 81 27 94 94 SSW 10 17 29.93 1014 10 16.0934 N/A
3:35 pm 15:35 Sunny 84 29 82 28 94 94 S 10 17 29.92 1013 10 16.0934 N/A
3:55 pm 15:55 Sunny 82 28 81 27 94 94 S 9 15 29.91 1013 10 16.0934 N/A
4:15 pm 16:15 Partly Cloudy 84 29 81 27 89 89 S 12 19 29.91 1013 10 16.0934 N/A
4:35 pm 16:35 Partly Cloudy 84 29 81 27 89 89 S 9 15 29.89 1012 10 16.0934 N/A
4:55 pm 16:55 Partly Cloudy 84 29 81 27 89 89 S 10 17 29.89 1012 10 16.0934 N/A
5:15 pm 17:15 Partly Cloudy 84 29 82 28 94 94 S 12 19 29.89 1012 10 16.0934 N/A
5:35 pm 17:35 Mostly Cloudy 84 29 82 28 94 94 SSE 9 15 29.89 1012 10 16.0934 N/A
5:55 pm 17:55 Mostly Cloudy 84 29 82 28 94 94 S 9 15 29.88 1012 10 16.0934 N/A
6:15 pm 18:15 Partly Cloudy 82 28 81 27 94 94 S 8 13 29.88 1012 10 16.0934 N/A
6:35 pm 18:35 Mostly Cloudy 82 28 81 27 94 94 S 7 11 29.88 1012 10 16.0934 N/A
6:55 pm 18:55 Mostly Cloudy 82 28 82 28 100 100 S 6 9 29.88 1012 10 16.0934 N/A
7:15 pm 19:15 Mostly Cloudy 82 28 82 28 100 100 S 7 11 29.88 1012 10 16.0934 N/A
7:35 pm 19:35 Mostly Cloudy 81 27 81 27 100 100 S 5 7 29.89 1012 10 16.0934 N/A
7:55 pm 19:55 Mostly Cloudy 70 21 70 21 100 100 NNW 20 31 29.97 1015 4 6.43736 N/A
8:15 pm 20:15 Cloudy 66 19 66 19 100 100 NNW 22 35 29.97 1015 0.5 0.80467 N/A
8:35 pm 20:35 Cloudy 66 19 66 19 100 100 N 10 17 29.99 1016 3 4.82802 N/A
8:55 pm 20:55 Mostly Cloudy 68 20 68 20 100 100 NNW 5 7 29.99 1016 10 16.0934 N/A
9:15 pm 21:15 Partly Cloudy 68 20 68 20 100 100 NW 3 6 30 1016 10 16.0934 N/A
9:35 pm 21:35 Mostly Cloudy 68 20 68 20 100 100 Calm 30.01 1016 7 11.26538 N/A
9:55 pm 21:55 Mostly Cloudy 68 20 68 20 100 100 Calm 30.01 1016 5 8.0467 N/A
10:15 pm 22:15 Partly Cloudy 68 20 68 20 100 100 SSE 3 6 29.99 1016 7 11.26538 N/A
10:35 pm 22:35 Partly Cloudy 66 19 66 19 100 100 SSE 6 9 29.99 1016 10 16.0934 N/A
10:55 pm 22:55 Clear 66 19 66 19 100 100 SSE 8 13 29.98 1015 10 16.0934 N/A
11:15 pm 23:15 Partly Cloudy 66 19 66 19 100 100 SE 12 19 29.95 1014 10 16.0934 N/A
11:35 pm 23:35 Partly Cloudy 66 19 66 19 100 100 SSE 15 24 29.91 1013 10 16.0934 N/A
11:55 pm 23:55 Clear 66 19 66 19 100 100 S 10 17 29.92 1013 10 16.0934 N/A

Powered by AerisWeather